{"data":{"norad_id":58096,"intl_designator":"2023-160X","name":"STARLINK-30581","alt_names":[],"object_type":"PAYLOAD","status":"ACTIVE","operator":null,"country":"US","launch_date":"2023-10-18","launch_site_code":"AFETR","launch_vehicle":null,"mission":null,"orbit_class":"UNKNOWN","rcs_meters":null,"size_class":null,"mass_kg":null,"dimensions":null,"purposes":["comms"],"wikipedia_slug":null,"has_3d_model":false,"image_url":null,"decayed_at":null,"tle_current":{"epoch":"2026-09-20T03:25:10.634880Z","epoch_age_seconds":171378,"freshness":"FRESH","line1":"1 58096U 23160X   26263.14248420  .00000426  00000+0  25017-4 0  9994","line2":"2 58096  43.0027  59.8111 0001361 262.0579  98.0118 15.27579638162686","mean_motion":15.27579638,"eccentricity":0.0001361,"inclination_deg":43.0027,"raan_deg":59.8111,"arg_perigee_deg":262.0579,"mean_anomaly_deg":98.0118,"bstar":2.5017e-5,"rev_number":16268,"period_min":94.266771052626,"perigee_km":482.1163724229,"apogee_km":483.98398757329,"semimajor_km":6861.1871799981,"source":"CELESTRAK","updated_at":"2026-09-21T09:00:33.785643Z"}}}